Refine Search
Year Filed

2008 ×

Court

Click on desired case number or refine your search to continue

Case TitleCourtCase NoChpDate FiledClosedDisposition
Lehman Brothers Holdings Inc. and PMC BancorpNew York Southern1:08-bk-135551109/15/2008
Polaroid CorporationMinnesota4:08-bk-46617712/18/2008
Kimball Hill, Inc.Illinois Northern1:08-bk-100951104/23/2008
Thiele Manufacturing, LLCPennsylvania Western2:08-bk-28469712/19/200801/31/2012Discharge Not Applicable
Anthony Phillips, Jr. Hauling, Inc.Pennsylvania Western2:08-bk-221701104/04/200805/14/2010Standard Discharge
Kearns Trucking, Inc.Pennsylvania Western2:08-bk-24784707/22/200806/14/2010Dismissed for Failure to File Information 05/12/2010
Erie County Plastics Corporation, a Pennsylvania CPennsylvania Western1:08-bk-118601109/29/200807/31/2018Discharge Not Applicable
Commonwealth Medical Center, Inc., a PennsylvaniaPennsylvania Western2:08-bk-281441112/05/200801/14/2013Discharge Not Applicable
JMYGEEZ, Inc. d/b/a Jimmy GPennsylvania Western2:08-bk-20710702/04/200802/27/2015Discharge Not Applicable
Elisewes, Inc.Pennsylvania Western2:08-bk-23482705/28/200810/02/2009Standard Discharge
Grove City Materials, L.P.Pennsylvania Western2:08-bk-266391110/03/200806/05/2009Dismissed for Other Reason 05/07/2009
FD PA 2, LLCPennsylvania Western2:08-bk-24134706/24/200810/23/2012Discharge Not Applicable
Reinhold Ice Cream CompanyPennsylvania Western2:08-bk-25287708/12/200810/02/2008Dismissed for Other Reason 09/18/2008
SPP Property & Business Management, Inc.Pennsylvania Western2:08-bk-229821105/05/200801/07/2009Dismissed for Other Reason 07/18/2008
CCRC, Inc.Pennsylvania Western2:08-bk-21823703/21/200801/12/2011Discharge Not Applicable
Creditron Financial CorporationPennsylvania Western1:08-bk-112891107/03/200809/04/2013Discharge Not Applicable
Buffalo Pitt, LLCPennsylvania Western2:08-bk-222081104/04/200803/27/2009Discharge Not Applicable
Ciena Capital LLC and BLX Commercial Capital, LLCNew York Southern1:08-bk-137831109/30/200809/23/2011Discharge Not Applicable
KB Toys, Inc.Delaware1:08-bk-132691112/11/200803/01/2010Dismissed for Other Reason
Hoop Holdings, LLCDelaware1:08-bk-105441103/26/200804/25/2019Discharge Not Applicable
BH S&B Holdings LLCNew York Southern1:08-bk-14604711/19/200802/14/2018Discharge Not Applicable
Stone Barn Industries Inc.New York Southern1:08-bk-125851107/09/200807/01/2011Discharge Not Applicable
Stone Barn Manhattan, LLCNew York Southern1:08-bk-125791107/09/200809/22/2011Discharge Not Applicable
SemCrude, L.P.Delaware1:08-bk-115251107/22/200801/22/2015
Renaissance Healthcare Systems, Inc.Texas Northern4:08-bk-43822708/26/2008
Renaissance Hospitals, Inc.Texas Northern4:08-bk-43821708/26/200808/11/2017
Houston Community Hospital, Inc.Texas Northern4:08-bk-43820708/26/2008
Renaissance Hospital Dallas, Inc.Texas Northern4:08-bk-43819708/26/2008
Renaissance Hospital Terrell Inc.Texas Northern3:08-bk-341431108/21/200807/10/2017
Renaissance Hospital Grand Prairie, Inc. and Renaissance Hospital Terrell Inc.Texas Northern4:08-bk-43775708/21/2008
Modern Metal Products Co.Illinois Northern3:08-bk-73908712/01/2008
Lancelot Investors Fund, LPIllinois Northern1:08-bk-28225710/20/2008
Empire Land, LLCCalifornia Central6:08-bk-14592704/25/2008
C & S COMPANY, INC.Nevada2:08-bk-227061110/28/2008
GO FIG, INC., et alMissouri Eastern4:08-bk-40116701/07/2008
Jevic Holding Corp.Delaware1:08-bk-11006705/20/200809/09/2014
DCI Management Group, Inc.Delaware1:08-bk-11392707/07/2008
MPC Computers, LLC, et al.,Delaware1:08-bk-126671111/06/2008
Brooke Capital CorporationKansas2:08-bk-22789710/28/2008
Estate Financial IncCalifornia Central9:08-bk-114571106/25/2008
Ernie Haire Ford, Inc.Florida Middle8:08-bk-186721111/24/2008
Estate Financial Mortgage Fund, LLCCalifornia Central9:08-bk-115351107/01/2008
Equity Media Holdings Corporation et alArkansas Eastern4:08-bk-17646712/08/2008
DBSI, Inc., et al., and Joshua R. Hochberg, the ExaminerDelaware1:08-bk-126871111/10/2008
Kimball Hill Homes Houston, L.P.Illinois Northern1:08-bk-101261104/23/2008
CETUS MORTGAGE, LTD.Nevada3:08-bk-51131707/09/2008
Heller Ehrman LLPCalifornia Northern3:08-bk-325141112/28/2008
Gold West Construction, Inc.California Eastern9:08-bk-90827705/05/2008
Cryptek, Inc.Virginia Eastern1:08-bk-17324711/21/2008
GoodyDelaware1:08-bk-111331106/09/2008